This demonstration page uses our WeatherBlox Daily Observations layout. Learn more.

Left ArrowRight Arrow

Hourly Observations for April 8, 2018

Temp ( °F °C ) Dew Point ( °F °C ) Humidity (%) Winds ( mph kmh ) Pressure ( in mb ) Visibility ( mi km ) Precip ( " mm )
12:53 am 00:53 Clear 51 10.6 39 3.9 64 64 S 8 13 30.05 1018 10 16 0.00 0.00
1:53 am 01:53 Clear 53 11.7 39 3.9 59 59 S 12 19 30.07 1018 10 16 0.00 0.00
2:53 am 02:53 Partly Cloudy 51 10.6 41 5 69 69 S 8 13 30.09 1019 10 16 0.00 0.00
3:53 am 03:53 Mostly Cloudy 52 11.1 43 6.1 72 72 S 7 11 30.10 1019 10 16 0.00 0.00
4:53 am 04:53 Cloudy 51 10.6 44 6.7 77 77 S 7 11 30.11 1020 10 16 0.00 0.00
5:53 am 05:53 Cloudy 51 10.6 45 7.2 80 80 SSW 7 11 30.12 1020 10 16 0.00 0.00
6:53 am 06:53 Sunny 49 9.4 45 7.2 86 86 WSW 5 7 30.14 1021 10 16 0.00 0.00
7:53 am 07:53 Sunny 50 10 45 7.2 83 83 Calm 30.17 1022 10 16 0.00 0.00
8:53 am 08:53 Sunny 53 11.7 46 7.8 77 77 ESE 5 7 30.19 1022 10 16 0.00 0.00
9:53 am 09:53 Mostly Cloudy 56 13.3 47 8.3 72 72 Calm 30.19 1022 10 16 0.00 0.00
10:01 am 10:01 Sunny 56 13.3 47 8.3 72 72 VRB 5 7 30.21 1023 10 16 0.00 0.00
10:53 am 10:53 Partly Cloudy 57 13.9 45 7.2 64 64 Calm 30.19 1022 10 16 0.00 0.00
11:53 am 11:53 Partly Cloudy 61 16.1 45 7.2 56 56 NE 6 9 30.19 1022 10 16 0.00 0.00
12:53 pm 12:53 Mostly Sunny 62 16.7 43 6.1 50 50 ESE 5 7 30.19 1022 10 16 0.00 0.00
1:53 pm 13:53 Mostly Sunny 64 17.8 42 5.6 45 45 VRB 5 7 30.17 1022 10 16 0.00 0.00
2:53 pm 14:53 Mostly Sunny 66 18.9 41 5 40 40 Calm 30.16 1021 10 16 0.00 0.00
3:53 pm 15:53 Sunny 66 18.9 40 4.4 39 39 Calm 30.14 1021 10 16 0.00 0.00
4:53 pm 16:53 Sunny 68 20 42 5.6 39 39 Calm 30.13 1020 10 16 0.00 0.00
5:53 pm 17:53 Sunny 68 20 41 5 38 38 ENE 3 6 30.12 1020 10 16 0.00 0.00
6:53 pm 18:53 Sunny 66 18.9 40 4.4 39 39 Calm 30.11 1020 10 16 0.00 0.00
7:53 pm 19:53 Clear 62 16.7 45 7.2 54 54 Calm 30.11 1020 10 16 0.00 0.00
8:53 pm 20:53 Clear 57 13.9 46 7.8 67 67 Calm 30.13 1020 10 16 0.00 0.00
9:53 pm 21:53 Clear 56 13.3 46 7.8 70 70 WNW 7 11 30.16 1021 10 16 0.00 0.00
10:53 pm 22:53 Clear 55 12.8 46 7.8 72 72 N 7 11 30.16 1022 10 16 0.00 0.00
11:53 pm 23:53 Clear 54 12.2 45 7.2 72 72 NNW 5 7 30.16 1021 10 16 0.00 0.00

Powered by AerisWeather